パンスターズ彗星

394P/PanSTARRS (2019)

English version
Home page
Updated on February 21, 2021

---------------------------------------------------------------------

・ プロフィール

符号 394P/2020 F4
発見日 2020年3月24日
発見光度 20.7等
発見者 Pan-STARRS 1 telescope (Haleakala)

・ 軌道要素

Epoch 2019 Nov. 13.0 TT = JDT 2458800.5                                         
T 2019 Nov. 30.45408 TT                                 Rudenko                 
q   2.7379288            (2000.0)            P               Q                  
n   0.10919245     Peri.   54.52596     -0.87931229     -0.45304618             
a   4.3351851      Node    98.12561     +0.37461314     -0.84834052             
e   0.3684402      Incl.    8.52953     +0.29406614     -0.27398452             
P   9.03                                                                        
From 88 observations 2002 Apr. 1-2020 Apr. 4, mean residual 0".5.               
     Nongravitational parameters A1 = +0.03, A2 = -0.0017.                      

・ 光度変化

        m1 = 14.0 + 5 logΔ + 10.0 log r

---------------------------------------------------------------------

軌道要素はM.P.E.C. 2020-H67に掲載されたものです。
光度グラフはComet for Windowsで作成したものです。

---------------------------------------------------------------------

Copyright(C) Seiichi Yoshida (comet@aerith.net). All rights reserved.